Rexburg, ID

4:55 PM MDT on March 24, 2017 (GMT -0600)
Rexburg-Madison County

Weather History for KRXE - January, 2013

Change the Weather History Date:

Tuesday, January 29, 2013

  Actual Average Record
Temperature  
Mean Temperature 18 °F 20 °F  
Max Temperature 23 °F 29 °F 37 °F (2005)
Min Temperature 13 °F 11 °F -7 °F (2002)
Degree Days  
Heating Degree Days 47 45  
Month to date heating degree days 1540 1305  
Since 1 July heating degree days 4413 4687  
Cooling Degree Days 0 0  
Month to date cooling degree days 0 0  
Year to date cooling degree days 0 0  
Moisture  
Dew Point 15 °F    
Average Humidity 85    
Maximum Humidity 96    
Minimum Humidity 73    
Precipitation  
Precipitation T in 0.02 in 0.37 in (2016)
Month to date precipitation 1.13 0.70  
Year to date precipitation 1.13 0.70  
Sea Level Pressure  
Sea Level Pressure 30.02 in    
Wind  
Wind Speed 3 mph (SW)    
Max Wind Speed 15 mph    
Max Gust Speed 20 mph    
Visibility 9 miles    
Events Snow    
T = Trace of Precipitation, MM = Missing Value Source: NWS Daily Summary

Daily Weather History Graph

Daily Weather History Graph

Search for Another Location

Airport or City:

Trip Planner

Search our weather history database for the weather conditions in past years. The results will help you decide how hot, cold, wet, or windy it might be!

Date:

Astronomy

Jan. 29, 2013 Rise Set
Actual Time 7:47 AM MST 5:34 PM MST
Civil Twilight 7:16 AM MST 6:05 PM MST
Nautical Twilight 6:41 AM MST 6:39 PM MST
Astronomical Twilight 6:07 AM MST 7:13 PM MST
Moon 8:42 PM MST (1/29) 8:38 AM MST (1/29)
Length of Visible Light 10h 48m
Length of Day
9h 47m
Waning Gibbous, 93% of the Moon is Illuminated
Jan 29
Waning Gibbous
Feb 3
Last Quarter
Feb 10
New
Feb 17
First Quarter
Feb 25
Full

Hourly Weather History & Observations

Time (MST) Temp. Windchill Dew Point Humidity Pressure Visibility Wind Dir Wind Speed Gust Speed Precip Events Conditions
12:53 AM 23.0 °F 11.1 °F 21.0 °F 92% 29.90 in 10.0 mi SSW 12.7 mph - N/A   Overcast
1:21 AM 23.0 °F 11.7 °F 19.4 °F 86% 29.77 in 10.0 mi SSW 11.5 mph - 0.00 in   Overcast
1:53 AM 23.0 °F 11.7 °F 19.9 °F 88% 29.88 in 10.0 mi SSW 11.5 mph - 0.00 in   Overcast
2:03 AM 23.0 °F 12.4 °F 19.4 °F 86% 29.77 in 10.0 mi WSW 10.4 mph - N/A   Overcast
2:53 AM 19.9 °F 10.1 °F 17.1 °F 89% 29.90 in 10.0 mi WSW 8.1 mph - N/A   Overcast
3:53 AM 19.0 °F 12.3 °F 16.0 °F 88% 29.90 in 10.0 mi WSW 4.6 mph - N/A   Overcast
4:53 AM 18.0 °F 7.7 °F 15.1 °F 88% 29.91 in 10.0 mi SW 8.1 mph - N/A   Overcast
5:53 AM 15.1 °F 9.4 °F 12.0 °F 88% 29.95 in 10.0 mi WSW 3.5 mph - N/A   Overcast
6:53 AM 16.0 °F - 12.0 °F 84% 29.94 in 10.0 mi Calm Calm - N/A   Overcast
7:53 AM 17.1 °F - 12.9 °F 84% 29.95 in 10.0 mi Calm Calm - N/A   Overcast
8:06 AM 17.6 °F - 12.2 °F 79% 29.81 in 1.8 mi Calm Calm - 0.00 in Snow Light Snow
8:17 AM 17.6 °F - 12.2 °F 79% 29.81 in 3.0 mi Calm Calm - 0.00 in Snow Light Snow
8:53 AM 18.0 °F - 14.0 °F 84% 29.96 in 10.0 mi Calm Calm - 0.00 in   Overcast
9:53 AM 19.0 °F 12.3 °F 12.9 °F 77% 29.99 in 10.0 mi NNE 4.6 mph - N/A   Overcast
10:53 AM 21.0 °F - 16.0 °F 81% 30.01 in 10.0 mi Calm Calm - N/A   Overcast
11:53 AM 21.0 °F - 16.0 °F 81% 30.04 in 10.0 mi Calm Calm - N/A   Overcast
12:53 PM 21.0 °F 16.2 °F 16.0 °F 81% 30.04 in 10.0 mi WSW 3.5 mph - N/A   Mostly Cloudy
1:16 PM 21.2 °F 12.6 °F 15.8 °F 80% 29.92 in 10.0 mi SSW 6.9 mph - N/A   Scattered Clouds
1:53 PM 21.0 °F - 16.0 °F 81% 30.06 in 10.0 mi Calm Calm - N/A   Scattered Clouds
2:53 PM 23.0 °F - 17.1 °F 78% 30.07 in 10.0 mi Calm Calm - N/A   Partly Cloudy
3:53 PM 21.9 °F 17.2 °F 16.0 °F 78% 30.12 in 10.0 mi SW 3.5 mph - N/A   Overcast
4:37 PM 19.4 °F 14.3 °F 15.8 °F 86% 30.00 in 10.0 mi SW 3.5 mph - N/A   Mostly Cloudy
4:53 PM 19.9 °F 14.9 °F 16.0 °F 85% 30.17 in 10.0 mi SSW 3.5 mph - N/A   Overcast
5:41 PM 19.4 °F 12.8 °F 15.8 °F 86% 30.03 in 10.0 mi SSW 4.6 mph - N/A   Overcast
5:53 PM 19.0 °F - 16.0 °F 88% 30.20 in 10.0 mi Calm Calm - N/A   Scattered Clouds
6:53 PM 17.1 °F - 14.0 °F 88% 30.22 in 10.0 mi Calm Calm - N/A   Mostly Cloudy
7:53 PM 14.0 °F - 12.0 °F 92% 30.25 in 10.0 mi Calm Calm - N/A   Partly Cloudy
8:53 PM 14.0 °F - 10.9 °F 88% 30.23 in 10.0 mi Calm Calm - N/A   Scattered Clouds
9:53 PM 16.0 °F - 14.0 °F 92% 30.23 in 10.0 mi Calm Calm - N/A   Mostly Cloudy
10:23 PM 15.8 °F 10.2 °F 12.2 °F 86% 30.07 in 10.0 mi SW 3.5 mph - N/A   Overcast
10:40 PM 17.6 °F 12.3 °F 15.8 °F 93% 30.07 in 10.0 mi SSW 3.5 mph - N/A   Overcast
10:53 PM 19.0 °F 11.1 °F 15.1 °F 85% 30.21 in 10.0 mi South 5.8 mph - N/A   Overcast
11:05 PM 19.4 °F 10.4 °F 15.8 °F 86% 30.06 in 10.0 mi South 6.9 mph - N/A   Overcast
11:53 PM 19.9 °F 10.1 °F 17.1 °F 89% 30.20 in 6.0 mi South 8.1 mph - 0.00 in Snow Light Snow